sat.trackr.live / text

‹ back to catalog

STARLINK-4194

NORAD 53000 · 2022-076Q

PAYLOAD ACTIVE UNKNOWN

§ Identity

Operator
Country
US
Launch date
2022-07-07
Launch site
AFETR
Launch vehicle
Mass (kg)
RCS (m²)

Purposes: comms

External: N2YO · Heavens-Above · Gunter

§ Orbital elements

Epoch: 2026-09-19T17:00:31.232448Z

Period
93.85 min
Inclination
53.1613°
Eccentricity
0.0001178
Mean motion
15.34388344 rev/d
Perigee alt
461.9 km
Apogee alt
463.5 km
Semi-major
6,840.9 km
B*
-2.5627e-5
RAAN
287.0680°
Arg perigee
80.5659°
Mean anomaly
279.5477°
Rev number
23,235

§ Raw data

STARLINK-41941 53000U 22076Q   26262.70869482 -.00001242  00000+0 -25627-4 0  99932 53000  53.1613 287.0680 0001178  80.5659 279.5477 15.34388344232359

JSON: /api/v1/satellites/53000 · /tle

For live sub-satellite position, see the globe view (requires WebGL).

§ Visibility from observer

Set your observer location to see the next 7 days of passes ≥ 10°. The values pass through the URL so the page stays shareable.

No JS? Fill the form by hand. The geolocation button needs JavaScript.